Location: Stockholm
(59.3333°N, 18.0500°E)
Time: 03:46:58
(UTC+02:00)

ISS - Visible Passes

Search period start: 25 September 2022 00:00
Search period end: 05 October 2022 00:00
Orbit: 414 x 417 km, 51.6° (Epoch: 24 September)

Date Brightness Start Highest point End Pass type
(mag) Time Alt. Az. Time Alt. Az. Time Alt. Az.
25 Sep -2.0 20:35:07 10° WSW 20:37:40 20° SSW 20:38:21 19° S visible
26 Sep -2.0 19:46:34 10° WSW 19:49:12 22° S 19:51:30 12° SE visible
26 Sep -1.1 21:23:31 10° SW 21:24:23 12° SW 21:24:23 12° SW visible
27 Sep -1.6 20:34:35 10° WSW 20:36:41 16° SSW 20:37:32 14° S visible
28 Sep -1.6 19:45:50 10° WSW 19:48:14 18° SSW 19:50:37 10° SSE visible
29 Sep -1.0 20:34:51 10° SW 20:35:34 11° SSW 20:36:17 10° SSW visible
30 Sep -1.2 19:45:25 10° SW 19:47:07 13° SSW 19:48:50 10° S visible
03 Oct -0.8 18:56:23 10° SW 18:57:23 11° SSW 18:58:23 10° SSW visible
